FW1714 Weather Reports


Display with metric or nautical units.
time (UTC)temp
F
wind
direction
speed
MPH
gust
MPH
rain 1hr
in
rain 24hr
in
rain mn
in
humidity
%
barometer
mb
20240229054833 38 234 0.0 1.0 0.00 0.02 0.02 33 1028.0
20240229054326 38 234 0.0 0.0 0.00 0.02 0.02 33 1027.9
20240229053823 38 234 0.0 0.0 0.00 0.02 0.02 32 1028.1
20240229053336 38 234 0.0 2.0 0.00 0.02 0.02 33 1027.8
20240229052833 38 234 0.0 2.0 0.00 0.02 0.02 31 1028.0
20240229052317 37 184 0.0 0.0 0.00 0.02 0.02 35 1028.1
20240229051833 37 184 0.0 0.0 0.00 0.02 0.02 36 1028.0
20240229051316 38 184 0.0 0.0 0.00 0.02 0.02 36 1028.1
20240229050814 38 184 0.0 0.0 0.00 0.02 0.02 36 1028.0
20240229050318 38 184 0.0 0.0 0.00 0.02 0.02 34 1028.1
20240229045816 38 184 0.0 0.0 0.00 0.02 0.02 32 1028.2
20240229045333 39 184 0.0 0.0 0.00 0.02 0.02 34 1028.2
20240229044832 39 184 0.0 0.0 0.00 0.02 0.02 34 1028.1
20240229044325 40 184 0.0 0.0 0.00 0.02 0.02 33 1028.1
20240229043822 40 184 0.0 0.0 0.00 0.02 0.02 32 1028.2
20240229043315 41 184 0.0 0.0 0.00 0.02 0.02 30 1028.3
20240229042833 42 184 0.0 0.0 0.00 0.02 0.02 29 1028.2
20240229042316 43 184 0.0 0.0 0.00 0.02 0.02 28 1028.3
20240229041833 43 184 0.0 0.0 0.00 0.02 0.02 25 1028.3
20240229041336 44 184 0.0 1.0 0.00 0.02 0.02 26 1028.5
20240229040831 44 184 0.0 1.0 0.00 0.02 0.02 22 1028.5
20240229040315 44 184 0.0 3.0 0.00 0.02 0.02 22 1028.3
20240229035832 44 184 1.0 3.0 0.00 0.02 0.02 21 1028.3
20240229035324 44 188 0.0 1.0 0.00 0.02 0.02 23 1028.4
20240229034826 45 188 0.0 1.0 0.00 0.02 0.02 23 1028.3
20240229034319 45 188 0.0 1.0 0.00 0.02 0.02 21 1028.3
20240229033816 46 188 0.0 0.0 0.00 0.02 0.02 23 1028.5
20240229033328 46 188 0.0 2.0 0.00 0.02 0.02 20 1028.4
20240229032827 47 188 0.0 3.0 0.00 0.02 0.02 21 1028.4
20240229032329 47 188 0.0 3.0 0.00 0.02 0.02 20 1028.4
20240229031826 47 189 0.0 1.0 0.00 0.02 0.02 21 1028.5
20240229031330 48 189 0.0 6.0 0.00 0.02 0.02 19 1028.4
20240229030828 48 189 1.0 5.0 0.00 0.02 0.02 18 1028.6
20240229030330 48 199 1.0 4.0 0.00 0.02 0.02 18 1028.5
20240229025829 48 209 0.0 2.0 0.00 0.02 0.02 18 1028.6
20240229025341 49 209 0.0 2.0 0.00 0.02 0.02 17 1028.5
20240229024820 49 195 0.0 9.0 0.00 0.02 0.02 17 1028.6
20240229024314 49 199 4.0 9.0 0.00 0.02 0.02 16 1028.7
20240229023831 49 247 1.0 6.0 0.00 0.02 0.02 17 1028.5
20240229023325 49 180 0.0 10.0 0.00 0.02 0.02 17 1028.6
20240229022821 49 180 2.0 10.0 0.00 0.02 0.02 18 1028.5
20240229022344 49 216 1.0 13.0 0.00 0.02 0.02 17 1028.5
20240229021821 49 142 4.0 13.0 0.00 0.02 0.02 18 1028.4
20240229021324 48 162 2.0 12.0 0.00 0.02 0.02 18 1028.5
20240229020823 49 145 1.0 4.0 0.00 0.02 0.02 19 1028.5
20240229020324 49 157 0.0 5.0 0.00 0.02 0.02 18 1028.4
20240229015821 49 173 1.0 5.0 0.00 0.02 0.02 19 1028.4
20240229015314 49 161 1.0 5.0 0.00 0.02 0.02 18 1028.6
20240229014815 50 178 1.0 8.0 0.00 0.02 0.02 18 1028.6
20240229014350 50 181 2.0 13.0 0.00 0.02 0.02 18 1028.6
20240229013825 50 223 6.0 16.0 0.00 0.02 0.02 17 1028.5
20240229013318 50 198 8.0 19.0 0.00 0.02 0.02 17 1028.5
20240229012815 50 189 7.0 19.0 0.00 0.02 0.02 17 1028.5
20240229012318 50 194 9.0 20.0 0.00 0.02 0.02 18 1028.3
20240229011814 50 194 11.0 22.0 0.00 0.02 0.02 18 1028.3
20240229011317 50 200 11.0 22.0 0.00 0.02 0.02 18 1028.1
20240229010834 50 187 8.0 19.0 0.00 0.02 0.02 19 1028.1
20240229010317 50 214 8.0 19.0 0.00 0.02 0.02 19 1028.1
20240229005814 50 197 6.0 12.0 0.00 0.02 0.02 19 1028.1
20240229005327 50 211 5.0 19.0 0.00 0.02 0.02 20 1028.1
20240229004824 50 204 8.0 19.0 0.00 0.02 0.02 20 1028.2
20240229004321 50 226 6.0 15.0 0.00 0.02 0.02 19 1028.2
20240229003816 50 220 10.0 15.0 0.00 0.02 0.02 19 1028.3
20240229003329 50 191 6.0 14.0 0.00 0.02 0.02 20 1028.2
20240229002826 51 360 6.0 12.0 0.00 0.02 0.02 19 1028.3
20240229002330 51 235 4.0 11.0 0.00 0.02 0.02 19 1028.3
20240229001847 51 234 2.0 10.0 0.00 0.02 0.02 20 1028.3
20240229001329 51 254 4.0 11.0 0.00 0.02 0.02 20 1028.2
20240229000825 52 360 4.0 12.0 0.00 0.02 0.02 18 1028.1
20240229000329 52 174 6.0 12.0 0.00 0.02 0.02 18 1028.1
20240228235824 53 217 7.0 15.0 0.00 0.02 0.02 18 1028.2
20240228235316 53 192 6.0 15.0 0.00 0.02 0.02 17 1028.0
20240228234852 53 232 5.0 14.0 0.00 0.02 0.02 17 1028.2
20240228234345 53 256 6.0 11.0 0.00 0.02 0.02 18 1028.1
20240228233820 54 200 4.0 9.0 0.00 0.02 0.02 17 1028.2
20240228233314 54 248 5.0 11.0 0.00 0.02 0.02 17 1028.3
20240228232831 54 276 4.0 16.0 0.00 0.02 0.02 17 1028.3
20240228232318 54 271 7.0 16.0 0.00 0.02 0.02 16 1028.6
20240228231815 54 234 5.0 20.0 0.00 0.02 0.02 16 1028.5
20240228231318 54 237 7.0 15.0 0.00 0.02 0.02 16 1028.4
20240228230815 54 269 7.0 15.0 0.00 0.02 0.02 17 1028.5
20240228230319 54 200 5.0 13.0 0.00 0.02 0.02 16 1028.3
20240228225834 55 319 4.0 10.0 0.00 0.02 0.02 17 1028.4
20240228225327 54 252 5.0 18.0 0.00 0.02 0.02 17 1028.3
20240228224824 54 249 10.0 18.0 0.00 0.02 0.02 17 1028.3
20240228224317 54 182 7.0 18.0 0.00 0.02 0.02 16 1028.5
20240228223833 55 222 7.0 18.0 0.00 0.02 0.02 17 1028.6
20240228223346 55 264 8.0 18.0 0.00 0.02 0.02 19 1028.5
20240228222822 55 171 4.0 9.0 0.00 0.02 0.02 17 1028.5
20240228222347 55 171 3.0 9.0 0.00 0.02 0.02 17 1028.6
20240228221822 54 333 2.0 8.0 0.00 0.02 0.02 17 1028.6
20240228221325 54 344 0.0 11.0 0.00 0.02 0.02 18 1028.6
20240228220827 54 350 3.0 11.0 0.00 0.02 0.02 17 1028.7
20240228220330 54 306 5.0 13.0 0.00 0.02 0.02 18 1028.7
20240228215825 54 331 2.0 10.0 0.00 0.04 0.02 18 1028.8
20240228215338 54 324 2.0 10.0 0.00 0.04 0.02 17 1028.8
20240228214814 54 315 5.0 10.0 0.00 0.04 0.02 19 1028.8
20240228214326 54 317 2.0 10.0 0.00 0.04 0.02 18 1028.8
20240228213823 54 257 4.0 10.0 0.00 0.04 0.02 18 1028.7
20240228213315 54 188 4.0 11.0 0.00 0.04 0.02 19 1028.8
20240228212833 54 294 5.0 11.0 0.00 0.04 0.02 19 1028.7
20240228212316 54 308 1.0 8.0 0.00 0.04 0.02 22 1028.7
20240228211833 53 325 3.0 8.0 0.00 0.04 0.02 25 1028.7
20240228211316 53 350 1.0 4.0 0.00 0.04 0.02 23 1028.7
20240228210833 52 216 0.0 7.0 0.00 0.04 0.02 25 1028.8
20240228204323 49 132 1.0 5.0 0.00 0.11 0.02 26 1028.9
20240228203819 48 313 0.0 5.0 0.00 0.11 0.02 29 1029.0
20240228203331 48 313 2.0 5.0 0.00 0.11 0.02 26 1029.1
20240228202830 48 20 0.0 4.0 0.00 0.11 0.02 28 1029.0
20240228202352 48 34 1.0 3.0 0.00 0.11 0.02 29 1029.1
20240228201829 47 46 0.0 2.0 0.01 0.11 0.02 29 1029.0
20240228201331 46 323 0.0 3.0 0.01 0.11 0.02 30 1029.0
20240228200829 45 317 1.0 3.0 0.01 0.11 0.02 31 1029.1
20240228200332 45 360 0.0 4.0 0.01 0.11 0.02 29 1029.2
20240228195813 44 360 0.0 4.0 0.01 0.13 0.02 33 1029.2
20240228195327 43 360 0.0 4.0 0.01 0.13 0.02 35 1029.3
20240228194824 43 360 1.0 3.0 0.01 0.13 0.02 31 1029.5
20240228194317 43 360 0.0 0.0 0.01 0.13 0.02 35 1029.5
20240228193815 42 360 0.0 0.0 0.01 0.13 0.02 33 1029.7
20240228193328 42 360 0.0 4.0 0.01 0.13 0.02 30 1029.9
20240228192826 42 360 0.0 4.0 0.01 0.13 0.02 31 1030.2
20240228192329 42 360 0.0 3.0 0.01 0.13 0.02 32 1030.2
20240228191827 42 360 1.0 3.0 0.00 0.12 0.01 31 1030.4
20240228191329 42 147 0.0 3.0 0.00 0.12 0.01 34 1030.3
20240228190826 42 148 1.0 3.0 0.00 0.12 0.01 31 1030.5
20240228190329 41 149 0.0 3.0 0.00 0.12 0.01 32 1030.4
20240228185827 41 150 0.0 2.0 0.00 0.12 0.01 35 1030.5
20240228185323 41 360 0.0 3.0 0.00 0.12 0.01 32 1030.5
20240228184820 41 360 1.0 3.0 0.00 0.12 0.01 31 1030.6
20240228184333 40 360 0.0 3.0 0.00 0.12 0.01 32 1030.7
20240228183830 39 360 0.0 6.0 0.00 0.12 0.01 34 1030.8
20240228183343 38 360 2.0 6.0 0.00 0.12 0.01 32 1030.8
20240228182820 38 360 0.0 3.0 0.00 0.12 0.01 35 1030.7
20240228182323 38 360 0.0 3.0 0.00 0.12 0.01 31 1030.8
20240228181821 37 360 1.0 4.0 0.01 0.12 0.01 32 1030.8
20240228181323 37 360 1.0 5.0 0.01 0.12 0.01 33 1030.8
20240228180820 37 360 1.0 5.0 0.01 0.12 0.01 34 1030.9
20240228180323 37 165 0.0 2.0 0.01 0.12 0.01 34 1030.9
20240228175820 38 132 0.0 4.0 0.01 0.12 0.01 32 1030.8
20240228175318 38 360 1.0 4.0 0.01 0.12 0.01 34 1030.7
20240228174815 37 360 0.0 2.0 0.01 0.12 0.01 33 1030.7
20240228174329 37 360 0.0 2.0 0.01 0.12 0.01 32 1030.7
20240228173826 37 145 1.0 4.0 0.01 0.12 0.01 33 1030.7
20240228173319 37 298 0.0 4.0 0.01 0.12 0.01 33 1030.6
20240228172817 37 107 0.0 4.0 0.01 0.12 0.01 35 1030.6
20240228172320 38 102 0.0 3.0 0.01 0.12 0.01 33 1030.5
20240228171817 37 96 0.0 4.0 0.00 0.11 0.00 33 1030.5
20240228171320 38 105 1.0 4.0 0.00 0.11 0.00 33 1030.5
20240228170836 37 91 0.0 3.0 0.00 0.11 0.00 34 1030.4
20240228170319 37 90 0.0 1.0 0.00 0.11 0.00 32 1030.5
20240228165835 37 96 0.0 3.0 0.00 0.11 0.00 29 1030.2
20240228165326 36 94 0.0 3.0 0.00 0.11 0.00 31 1030.3
20240228164824 36 92 0.0 2.0 0.00 0.11 0.00 31 1030.3
20240228164322 35 86 0.0 2.0 0.00 0.11 0.00 32 1030.2
20240228163818 35 55 0.0 3.0 0.00 0.11 0.00 31 1030.2
20240228163330 34 113 0.0 2.0 0.00 0.11 0.00 31 1030.1
20240228162828 33 360 0.0 3.0 0.00 0.11 0.00 31 1030.0
20240228162351 33 169 0.0 3.0 0.00 0.11 0.00 30 1029.8
20240228161827 32 360 0.0 1.0 0.00 0.11 0.00 35 1029.9
20240228161330 32 289 0.0 0.0 0.00 0.11 0.00 36 1029.9
20240228160828 31 343 0.0 0.0 0.00 0.11 0.00 38 1029.9
20240228160331 31 343 0.0 1.0 0.00 0.11 0.00 37 1029.9
20240228155828 30 360 0.0 1.0 0.00 0.11 0.00 37 1030.0
20240228155321 30 317 0.0 0.0 0.00 0.11 0.00 36 1030.1
20240228154819 30 360 0.0 0.0 0.00 0.11 0.00 38 1030.1
20240228154315 29 360 0.0 0.0 0.00 0.11 0.00 40 1030.0
20240228153832 28 360 0.0 0.0 0.00 0.11 0.00 39 1030.0
20240228153326 27 360 0.0 0.0 0.00 0.11 0.00 41 1030.1
20240228152824 26 360 0.0 0.0 0.00 0.11 0.00 41 1029.9
20240228152327 26 360 0.0 0.0 0.00 0.11 0.00 43 1030.1
20240228151825 25 360 0.0 1.0 0.00 0.11 0.00 42 1030.1
20240228151328 25 360 0.0 2.0 0.00 0.11 0.00 43 1030.0
20240228150845 24 360 0.0 1.0 0.00 0.11 0.00 45 1030.1
20240228150328 23 360 0.0 1.0 0.00 0.11 0.00 47 1029.9
20240228145845 22 360 0.0 0.0 0.00 0.11 0.00 48 1029.9
20240228145317 22 360 0.0 0.0 0.00 0.11 0.00 48 1029.7
20240228144835 21 360 0.0 0.0 0.00 0.11 0.00 48 1029.6
20240228144326 21 360 0.0 0.0 0.00 0.11 0.00 49 1029.7
20240228143824 21 360 0.0 0.0 0.00 0.11 0.00 51 1029.5
20240228143320 20 360 0.0 0.0 0.00 0.11 0.00 51 1029.4
20240228142817 20 360 0.0 0.0 0.00 0.11 0.00 53 1029.2
20240228142321 20 360 0.0 0.0 0.00 0.11 0.00 53 1029.2
20240228141817 20 360 0.0 0.0 0.00 0.11 0.00 52 1029.0
20240228141341 20 360 0.0 0.0 0.00 0.11 0.00 52 1029.2
20240228140815 20 360 0.0 0.0 0.00 0.11 0.00 52 1029.1
20240228140318 20 360 0.0 0.0 0.00 0.11 0.00 51 1028.8
20240228135815 20 360 0.0 0.0 0.00 0.11 0.00 51 1028.6
20240228135330 20 360 0.0 0.0 0.00 0.11 0.00 50 1028.5
20240228134847 20 360 0.0 0.0 0.00 0.11 0.00 50 1028.3
20240228134339 21 360 0.0 5.0 0.00 0.11 0.00 49 1028.3
20240228133815 21 360 0.0 5.0 0.00 0.11 0.00 49 1028.0
20240228133329 22 360 2.0 5.0 0.00 0.11 0.00 47 1027.9
20240228132825 23 360 1.0 4.0 0.00 0.11 0.00 44 1027.7
20240228132328 25 360 0.0 2.0 0.00 0.11 0.00 41 1027.6
20240228131824 26 360 0.0 2.0 0.00 0.11 0.00 38 1027.6
20240228131347 28 360 0.0 5.0 0.00 0.11 0.00 34 1027.6
20240228130824 29 360 0.0 6.0 0.00 0.11 0.00 28 1027.4
20240228130331 28 360 2.0 9.0 0.00 0.11 0.00 26 1027.2
20240228125828 28 360 1.0 11.0 0.00 0.11 0.00 26 1027.1
20240228125321 28 360 7.0 11.0 0.00 0.11 0.00 26 1026.8
20240228124837 27 360 6.0 11.0 0.00 0.11 0.00 28 1027.0
20240228124330 26 360 4.0 11.0 0.00 0.11 0.00 29 1027.0
20240228123848 26 360 6.0 11.0 0.00 0.11 0.00 29 1027.2
20240228123320 26 360 0.0 4.0 0.00 0.11 0.00 29 1027.5
20240228122815 26 360 1.0 3.0 0.00 0.11 0.00 29 1027.4
20240228122318 26 360 0.0 5.0 0.00 0.11 0.00 28 1027.4
20240228121815 25 360 1.0 4.0 0.00 0.11 0.00 29 1027.2
20240228121318 25 360 1.0 4.0 0.00 0.11 0.00 31 1027.2
20240228120816 25 360 1.0 3.0 0.00 0.11 0.00 30 1027.1
20240228120318 25 360 0.0 3.0 0.00 0.11 0.00 28 1027.0
20240228115815 25 360 0.0 3.0 0.00 0.11 0.00 28 1027.1
20240228115333 25 360 0.0 3.0 0.00 0.11 0.00 30 1027.0
20240228114830 26 360 0.0 3.0 0.00 0.11 0.00 29 1027.1
20240228114319 26 360 0.0 3.0 0.00 0.11 0.00 29 1026.9
20240228113816 26 360 0.0 3.0 0.00 0.11 0.00 27 1027.0
20240228113329 26 360 0.0 1.0 0.00 0.11 0.00 29 1026.8
20240228112827 26 360 0.0 1.0 0.00 0.11 0.00 27 1026.9
20240228112330 26 360 0.0 3.0 0.00 0.11 0.00 28 1026.7
20240228111827 26 360 1.0 9.0 0.00 0.11 0.00 28 1026.8
20240228111331 26 360 2.0 11.0 0.00 0.11 0.00 29 1026.6
20240228110828 26 360 7.0 11.0 0.00 0.11 0.00 28 1026.4
20240228110330 26 360 0.0 12.0 0.00 0.11 0.00 29 1026.2
20240228105827 26 360 3.0 12.0 0.00 0.11 0.00 29 1026.1
20240228105326 26 360 1.0 4.0 0.00 0.11 0.00 29 1026.1
20240228104822 26 360 0.0 8.0 0.00 0.11 0.00 29 1026.2
20240228104315 26 360 2.0 13.0 0.00 0.11 0.00 28 1026.3
20240228103833 25 360 4.0 13.0 0.00 0.11 0.00 28 1026.5
20240228103326 25 360 5.0 13.0 0.00 0.11 0.00 29 1026.3
20240228102821 25 360 5.0 12.0 0.00 0.11 0.00 31 1026.3
20240228102344 25 360 1.0 6.0 0.00 0.11 0.00 30 1026.2
20240228101841 25 360 1.0 6.0 0.00 0.11 0.00 30 1026.5
20240228101323 25 360 1.0 12.0 0.00 0.11 0.00 29 1026.5
20240228100821 25 360 0.0 13.0 0.00 0.11 0.00 28 1026.7
20240228100324 25 360 2.0 8.0 0.00 0.11 0.00 28 1026.8
20240228095841 25 360 0.0 6.0 0.00 0.11 0.00 27 1026.7
20240228095353 25 360 1.0 16.0 0.00 0.11 0.00 27 1026.7
20240228094829 25 360 2.0 16.0 0.00 0.11 0.00 27 1026.8
20240228094327 25 360 1.0 8.0 0.00 0.11 0.00 28 1027.1
20240228093824 25 360 2.0 8.0 0.00 0.11 0.00 29 1027.1
20240228093336 25 360 2.0 6.0 0.00 0.11 0.00 29 1027.2
20240228092813 25 360 1.0 8.0 0.00 0.11 0.00 28 1027.0
20240228092336 25 360 0.0 12.0 0.00 0.11 0.00 28 1027.1
20240228091832 25 360 2.0 12.0 0.00 0.11 0.00 28 1027.0
20240228091315 25 360 5.0 11.0 0.00 0.11 0.00 28 1027.1
20240228090813 24 360 4.0 11.0 0.00 0.11 0.00 28 1027.0
20240228090315 23 360 3.0 12.0 0.00 0.11 0.00 30 1027.1
20240228085832 22 360 2.0 12.0 0.00 0.11 0.00 33 1027.2
20240228085326 21 360 0.0 4.0 0.00 0.11 0.00 37 1027.1
20240228084843 21 360 0.0 1.0 0.00 0.11 0.00 39 1027.2
20240228084315 21 360 0.0 1.0 0.00 0.11 0.00 42 1027.4
20240228083832 21 360 0.0 1.0 0.00 0.11 0.00 41 1027.3
20240228083326 21 360 0.0 1.0 0.00 0.11 0.00 41 1027.4
20240228082827 22 360 0.0 1.0 0.00 0.11 0.00 41 1027.4
20240228082330 22 360 0.0 4.0 0.00 0.11 0.00 40 1027.6
20240228081848 22 360 0.0 5.0 0.00 0.11 0.00 40 1027.2
20240228081329 22 360 0.0 3.0 0.00 0.11 0.00 38 1027.6
20240228080847 23 360 1.0 3.0 0.00 0.11 0.00 36 1027.6
20240228080328 23 360 0.0 1.0 0.00 0.11 0.00 33 1027.4
20240228075823 23 360 0.0 1.0 0.00 0.11 0.00 32 1027.3
20240228075316 24 360 0.0 0.0 0.00 0.11 0.00 31 1027.4
20240228074814 24 360 0.0 3.0 0.00 0.11 0.00 30 1027.3
20240228074327 24 360 0.0 5.0 0.00 0.11 0.00 30 1027.2
20240228073844 23 360 2.0 5.0 0.00 0.11 0.00 32 1027.2
20240228073316 23 360 0.0 2.0 0.00 0.11 0.00 33 1027.2
20240228072814 23 360 0.0 0.0 0.00 0.11 0.00 37 1027.2
20240228072317 23 360 0.0 4.0 0.00 0.11 0.00 35 1027.3
20240228071854 23 360 1.0 4.0 0.00 0.11 0.00 36 1027.2
20240228071320 23 360 0.0 4.0 0.00 0.11 0.00 32 1027.2
20240228070816 24 360 0.0 4.0 0.00 0.11 0.00 32 1027.2
20240228070319 24 360 0.0 2.0 0.00 0.11 0.00 30 1027.1
20240228065816 24 360 0.0 5.0 0.00 0.11 0.11 29 1027.1
20240228065329 24 360 1.0 6.0 0.00 0.11 0.11 29 1027.0
20240228064827 24 360 1.0 12.0 0.00 0.11 0.11 29 1026.9
20240228064320 24 360 2.0 12.0 0.00 0.11 0.11 28 1026.9
20240228063816 24 360 1.0 3.0 0.00 0.11 0.11 29 1027.1
20240228063329 25 360 0.0 3.0 0.00 0.11 0.11 30 1027.2
20240228062826 25 360 1.0 4.0 0.00 0.11 0.11 30 1027.2
20240228062350 25 360 1.0 5.0 0.00 0.11 0.11 30 1027.1
20240228061847 25 360 1.0 6.0 0.00 0.11 0.11 28 1026.9
20240228061329 25 360 1.0 12.0 0.00 0.11 0.11 28 1026.8
20240228060826 25 360 2.0 12.0 0.00 0.11 0.11 28 1026.8
20240228060313 25 360 1.0 8.0 0.00 0.11 0.11 28 1026.8
20240228055852 25 360 1.0 10.0 0.00 0.11 0.11 28 1026.9
20240228055324 26 360 2.0 15.0 0.00 0.11 0.11 27 1026.7